Regional Weather Roundup
Issued by NWS Albany, NY

Home | Current Version | Previous Version | Graphics & Text | Print | Product List | Glossary On
Versions: 1 2 3 4 5 6 7 8 9 10 11 12 13 14 15 16 17 18 19 20 21 22 23 24 25 26 27 28
000
ASUS41 KALY 262310
RWRALY

NEW YORK STATE HOURLY WEATHER ROUNDUP
NATIONAL WEATHER SERVICE ALBANY NY
700 PM EDT THU MAY 26 2016

NOTE: "FAIR" INDICATES FEW OR NO CLOUDS BELOW 12,000 FEET WITH NO
SIGNIFICANT WEATHER AND/OR NO OBSTRUCTIONS TO VISIBILITY.

NYZ032-033-038>043-046>054-057>066-NYZ062>081-082-084-270000-
EAST


CITY           SKY/WX    TMP DP  RH WIND       PRES   REMARKS
ALBANY         CLOUDY    84  53  34 S5        30.00F
GLENS FALLS    PTSUNNY   84  56  38 S7        29.99F
POUGHKEEPSIE   CLOUDY    88  57  34 S5        29.99F
NEWBURGH       MOSUNNY   84  59  42 VRB6      30.03S
MONTGOMERY     CLOUDY    85  57  38 SW8       30.00S
WHITE PLAINS   CLOUDY    79  49  34 S6        30.04S
ISLIP          PTSUNNY   76  52  43 SW7       30.06R
NEW YORK CITY  PTSUNNY   85  53  33 S14       30.02S
CENTRAL PARK   PTSUNNY   83  44  25 VRB7      30.06S
$$

NYZ005>009-017-018-044>046-055-056-270000-
CENTRAL


CITY           SKY/WX    TMP DP  RH WIND       PRES   REMARKS
FULTON         LGT RAIN  72  64  76 W3        29.99R
SYRACUSE       CLOUDY    82  55  39 S6        29.96F
ROME           MOSUNNY   81  55  40 SW5       29.99F
ELMIRA         SUNNY     83  57  41 SW10      29.99S
BINGHAMTON     CLOUDY    78  54  43 SW7       30.04S
MONTICELLO     PTSUNNY   81  55  41 S6        30.07S
$$

NYZ026>034-041>043-087-270000-
NORTH


CITY           SKY/WX    TMP DP  RH WIND       PRES   REMARKS
WATERTOWN      CLOUDY    78  63  59 W3        29.96F
FORT DRUM      NOT AVBL
MASSENA        CLOUDY    74  48  39 NE9       30.00F
SARANAC LAKE   MOSUNNY   71  52  50 NE9       30.05F
PLATTSBURGH    CLOUDY    73  46  38 N3        30.03F
$$

NYZ001>004-010>016-019>021-085-270000-
WEST


CITY           SKY/WX    TMP DP  RH WIND       PRES   REMARKS
NIAGARA FALLS  PTSUNNY   81  62  52 SW10      29.93S
BUFFALO        PTSUNNY   80  61  52 SW7       29.95F
DUNKIRK        SUNNY     76  63  64 SW3       29.97S
JAMESTOWN      PTSUNNY   75  64  69 N6        30.01S
WELLSVILLE     CLOUDY    70  61  73 VRB6G20   30.07R
ROCHESTER      PTSUNNY   74  66  76 SE6       29.97F
PENN YAN       CLOUDY    78  60  53 W6        30.01R
$$

             KEY
       WCI = WIND CHILL INDEX
       VSB = VISIBILITY
       HX  = HEAT INDEX
$$




USA.gov is the U.S. government's official web portal to all federal, state and local government web resources and services.